Regional Weather Roundup
Issued by NWS

Home | Current Version | Previous Version | Graphics & Text | Print | Product List | Glossary On
Versions: 1 2 3 4 5 6 7 8 9 10 11 12 13 14 15 16 17 18 19 20 21 22 23 24 25 26 27 28 29 30 31 32 33 34 35 36 37 38 39 40 41 42 43 44 45 46 47 48 49 50
227
ASUS43 KBIS 260102
RWRND

NORTH DAKOTA REGIONAL WEATHER ROUNDUP
NATIONAL WEATHER SERVICE BISMARCK ND
800 PM CDT TUE APR 25 2017

NOTE: "FAIR" INDICATES FEW OR NO CLOUDS BELOW 12,000 FEET WITH NO
SIGNIFICANT WEATHER AND/OR OBSTRUCTIONS TO VISIBILITY.


NDZ001>003-009>011-017-260200-
NORTHWEST NORTH DAKOTA

CITY           SKY/WX    TMP DP  RH WIND       PRES   REMARKS
WILLISTON      CLOUDY    40  24  53 NE10      29.97F
MINOT          CLOUDY    41  26  55 N14       29.93S
MINOT AFB      CLOUDY    40  24  51 N16       29.93S
$$

NDZ018>021-031>035-040>046-260200-
SOUTHWEST NORTH DAKOTA

CITY           SKY/WX    TMP DP  RH WIND       PRES   REMARKS
BISMARCK       CLOUDY    37  27  67 N12       29.89F
DICKINSON      CLOUDY    32  23  69 N10       29.89S
GARRISON         N/A     38  26  62 NE7       29.90F
HETTINGER ARPT CLOUDY    31  24  75 N15       29.89R
$$

NDZ004>008-012>016-024-026-027-054-260200-
NORTHEAST NORTH DAKOTA

CITY           SKY/WX    TMP DP  RH WIND       PRES   REMARKS
GRAND FORKS    CLOUDY    37  29  72 NE20      29.87F
GRND FRKS AFB  CLOUDY    34  27  74 NE18      29.88S
DEVILS LAKE    CLOUDY    35  28  75 NE15      29.90F
$$

NDZ022-023-025-028>030-036>039-047>053-260200-
SOUTHEAST NORTH DAKOTA

CITY           SKY/WX    TMP DP  RH WIND       PRES   REMARKS
FARGO          CLOUDY    36  29  75 N26G32    29.78S
JAMESTOWN      CLOUDY    32  27  81 N17G26    29.85R
$$





USA.gov is the U.S. government's official web portal to all federal, state and local government web resources and services.